Regional Weather Roundup
Issued by NWS

Home | Current Version | Previous Version | Text Only | Print | Product List | Glossary Off
Versions: 1 2 3 4 5 6 7 8 9 10 11 12 13 14 15 16 17 18 19 20 21 22 23 24 25 26 27 28 29 30 31 32 33 34 35 36 37 38 39 40 41 42 43 44 45 46 47 48 49 50

000
ASUS43 KIND 191309
RWRIN

WEATHER ROUNDUP FOR INDIANA
NATIONAL WEATHER SERVICE INDIANAPOLIS IN
900 AM EDT SAT APR 19 2014

NOTE: "FAIR" INDICATES FEW OR NO CLOUDS BELOW 12,000 FEET WITH NO
SIGNIFICANT WEATHER AND/OR OBSTRUCTIONS TO VISIBILITY.

* - STATION DOES NOT REPORT WEATHER SUCH AS PRECIPITATION OR FOG.

+ - STATION NOT QUALITY CONTROLLED BY THE NATIONAL WEATHER SERVICE.
    USE DATA WITH CAUTION...ESPECIALLY DEWPOINT AND RELATIVE
    HUMIDITY OBSERVATIONS.

INZ001>003-010>013-019-020-191400-
NORTHWEST INDIANA

CITY           SKY/WX    TMP DP  RH WIND       PRES   REMARKS
GARY /AIRPORT/ SUNNY     43  36  75 NE9       30.39R
LA PORTE +     SUNNY     41  34  74 E12       30.38S
MICHIGAN CITY+ SUNNY     43  34  70 E7        30.38F
MONTICELLO +   SUNNY     43  35  74 E7        30.37R
RENSSELAER +   SUNNY     43  36  75 E7        30.36S
VALPARAISO     SUNNY     41  35  79 E14       30.37S

$$

LMZ046-743>745-191400-
SOUTHERN LAKE MICHIGAN

STATION/POSITION TIME  TEMP WIND        PRES
                       AIR  DIR/SP/G
                 (UTC) (F)  (DEG/KT/KT) (MB)
MICHIGAN CITY    1300   40   60/  7/  9   N/A

$$

INZ004-005-014>016-021>024-191400-
NORTH CENTRAL INDIANA

CITY           SKY/WX    TMP DP  RH WIND       PRES   REMARKS
GOSHEN         SUNNY     43  36  76 E14       30.40R
LOGANSPORT +   SUNNY     43  36  75 E14G20    30.38R
PERU/GRISSOM   SUNNY     43  40  88 E17       30.37R
ROCHESTER +    SUNNY     45  37  76 E16       30.38S HAZE
SOUTH BEND     SUNNY     43  34  70 E8        30.40R
WARSAW +       SUNNY     41  34  75 E15       30.39R

$$

INZ006>009-017-018-025>027-191400-
NORTHEAST INDIANA

CITY           SKY/WX    TMP DP  RH WIND       PRES   REMARKS
ANGOLA *+      SUNNY     37  30  75 E8        30.41R
AUBURN +       SUNNY     41  32  70 E13       30.43R
FORT WAYNE     MOSUNNY   40  34  79 E14       30.41R

$$

INZ028-029-035-036-043>045-051>053-191400-
WEST CENTRAL INDIANA

CITY           SKY/WX    TMP DP  RH WIND       PRES   REMARKS
GREENCASTLE +  SUNNY     46  39  76 E8        30.33R
LAFAYETTE      SUNNY     43  32  65 E10       30.35R
TERRE HAUTE    SUNNY     49  38  65 NE8       30.32R

$$

INZ030>032-037>040-046>048-054>057-064-065-191400-
CENTRAL INDIANA

CITY           SKY/WX    TMP DP  RH WIND       PRES   REMARKS
ANDERSON       CLOUDY    45  41  87 NE12G23   30.36  FOG
CP ATTERBURY + SUNNY     48  37  66 NE6       30.33S
COLUMBUS       SUNNY     46  41  81 N7        30.32R
FISHERS *+     SUNNY     46  39  76 E8        30.34R
INDIANAPOLIS   MOSUNNY   47  37  68 NE9       30.33R
-EAGLE CREEK   SUNNY     47  37  68 E8        30.33R
KOKOMO *+      SUNNY     43  36  75 E17       30.36R
MARION +       MOSUNNY   41  35  79 E14       30.37R
MT COMFORT *+  SUNNY     48  43  81 E9        30.33S
SHELBYVILLE    SUNNY     50  40  68 E12       30.32R
ZIONSVILLE +   SUNNY     46  38  72 E10       30.34S

$$

INZ033-034-041-042-049-050-058-059-191400-
EAST CENTRAL INDIANA

CITY           SKY/WX    TMP DP  RH WIND       PRES   REMARKS
MUNCIE         PTSUNNY   44  41  89 NE13      30.36R FOG

$$

INZ060-061-067>069-081>083-085>088-191400-
SOUTHWEST INDIANA

CITY           SKY/WX    TMP DP  RH WIND       PRES   REMARKS
EVANSVILLE     SUNNY     56  41  57 NE7       30.28R
HUNTINGBURG *+ SUNNY     54  39  58 NE9       30.29R
WASHINGTON +   SUNNY     51  40  68 N5        30.30S

$$

INZ062-063-066-070>080-084-089>092-191400-
SOUTH CENTRAL AND SOUTHEAST INDIANA

CITY           SKY/WX    TMP DP  RH WIND       PRES   REMARKS
BEDFORD +      SUNNY     52  36  54 NE3       30.31R
BLOOMINGTON    SUNNY     51  37  58 NE8       30.31R
NORTH VERNON + SUNNY     52  39  62 NE7       30.31R
SEYMOUR +      SUNNY     46  27  46 N6        30.31

$$




USA.gov is the U.S. government's official web portal to all federal, state and local government web resources and services.